| time (UTC) | temp F | wind direction | speed MPH | gust MPH | rain 1hr in | rain 24hr in | rain mn in | humidity % | barometer mb |
| 20260502130717 | 68 | 181 | 3.0 | 7.0 | 0.00 | 0.00 | 0.00 | 51 | 1014.5 |
| 20260502123719 | 66 | 325 | 1.0 | 4.0 | 0.00 | 0.00 | 0.00 | 54 | 1014.7 |
| 20260502123003 | 66 | 108 | 1.0 | 6.0 | 0.00 | 0.00 | 0.00 | 57 | 1014.9 |
| 20260502122503 | 65 | 151 | 2.0 | 6.0 | 0.00 | 0.00 | 0.00 | 58 | 1015.0 |
| 20260502122003 | 65 | 171 | 3.0 | 8.0 | 0.00 | 0.00 | 0.00 | 55 | 1015.0 |
| 20260502121504 | 66 | 187 | 3.0 | 8.0 | 0.00 | 0.00 | 0.00 | 55 | 1015.1 |
| 20260502121218 | 66 | 204 | 2.0 | 8.0 | 0.00 | 0.00 | 0.00 | 55 | 1015.0 |
| 20260502120503 | 66 | 231 | 1.0 | 4.0 | 0.00 | 0.00 | 0.00 | 56 | 1015.2 |
| 20260502115504 | 65 | 249 | 1.0 | 6.0 | 0.00 | 0.00 | 0.00 | 57 | 1015.3 |
| 20260502115004 | 65 | 224 | 2.0 | 6.0 | 0.00 | 0.00 | 0.00 | 56 | 1015.4 |
| 20260502114004 | 65 | 272 | 2.0 | 5.0 | 0.00 | 0.00 | 0.00 | 57 | 1015.6 |
| 20260502113503 | 65 | 230 | 2.0 | 10.0 | 0.00 | 0.00 | 0.00 | 56 | 1015.7 |
| 20260502113004 | 66 | 205 | 3.0 | 10.0 | 0.00 | 0.00 | 0.00 | 55 | 1015.9 |
| 20260502112504 | 66 | 220 | 2.0 | 8.0 | 0.00 | 0.00 | 0.00 | 55 | 1015.9 |
| 20260502112004 | 65 | 239 | 2.0 | 8.0 | 0.00 | 0.00 | 0.00 | 55 | 1016.0 |
| 20260502111503 | 65 | 243 | 2.0 | 8.0 | 0.00 | 0.00 | 0.00 | 56 | 1015.9 |
| 20260502111003 | 65 | 251 | 2.0 | 9.0 | 0.00 | 0.00 | 0.00 | 58 | 1015.8 |
| 20260502110503 | 64 | 240 | 2.0 | 9.0 | 0.00 | 0.00 | 0.00 | 59 | 1015.9 |
| 20260502110217 | 64 | 237 | 2.0 | 9.0 | 0.00 | 0.00 | 0.00 | 57 | 1015.9 |
| 20260502105504 | 64 | 224 | 3.0 | 8.0 | 0.00 | 0.00 | 0.00 | 58 | 1015.8 |
| 20260502105004 | 64 | 219 | 2.0 | 7.0 | 0.00 | 0.00 | 0.00 | 59 | 1015.8 |
| 20260502104503 | 64 | 209 | 2.0 | 7.0 | 0.00 | 0.00 | 0.00 | 60 | 1015.9 |
| 20260502104003 | 64 | 229 | 2.0 | 7.0 | 0.00 | 0.00 | 0.00 | 59 | 1016.0 |
| 20260502103718 | 63 | 261 | 2.0 | 5.0 | 0.00 | 0.00 | 0.00 | 60 | 1016.0 |
| 20260502103003 | 63 | 250 | 2.0 | 5.0 | 0.00 | 0.00 | 0.00 | 62 | 1016.0 |
| 20260502102718 | 63 | 254 | 2.0 | 5.0 | 0.00 | 0.00 | 0.00 | 63 | 1016.1 |
| 20260502102219 | 63 | 249 | 2.0 | 6.0 | 0.00 | 0.00 | 0.00 | 62 | 1016.1 |
| 20260502101503 | 62 | 222 | 2.0 | 6.0 | 0.00 | 0.00 | 0.00 | 63 | 1016.1 |
| 20260502101003 | 62 | 250 | 2.0 | 6.0 | 0.00 | 0.00 | 0.00 | 63 | 1016.2 |
| 20260502100503 | 61 | 209 | 3.0 | 8.0 | 0.00 | 0.00 | 0.00 | 64 | 1016.3 |
| 20260502091504 | 60 | 227 | 1.0 | 4.0 | 0.00 | 0.00 | 0.00 | 69 | 1016.5 |
| 20260502091003 | 60 | 211 | 1.0 | 5.0 | 0.00 | 0.00 | 0.00 | 68 | 1016.6 |
| 20260502090504 | 60 | 213 | 2.0 | 6.0 | 0.00 | 0.00 | 0.00 | 69 | 1016.5 |
| 20260502071503 | 53 | 242 | 1.0 | 4.0 | 0.00 | 0.00 | 0.00 | 84 | 1016.8 |
| 20260502071003 | 53 | 239 | 1.0 | 4.0 | 0.00 | 0.00 | 0.00 | 84 | 1016.8 |
| 20260502070504 | 52 | 264 | 1.0 | 4.0 | 0.00 | 0.00 | 0.00 | 85 | 1016.8 |
| 20260502070218 | 52 | 274 | 1.0 | 4.0 | 0.00 | 0.00 | 0.00 | 85 | 1016.8 |
| 20260502065503 | 52 | 266 | 1.0 | 4.0 | 0.00 | 0.00 | 0.00 | 87 | 1016.8 |
| 20260502065218 | 51 | 260 | 1.0 | 4.0 | 0.00 | 0.00 | 0.00 | 87 | 1016.8 |
| 20260502064503 | 51 | 249 | 1.0 | 4.0 | 0.00 | 0.00 | 0.00 | 88 | 1017.0 |
| 20260502064003 | 51 | 247 | 1.0 | 4.0 | 0.00 | 0.00 | 0.00 | 88 | 1016.9 |
| 20260502063503 | 50 | 234 | 1.0 | 4.0 | 0.00 | 0.00 | 0.00 | 88 | 1016.9 |
| 20260502063004 | 50 | 236 | 1.0 | 4.0 | 0.00 | 0.00 | 0.00 | 89 | 1016.8 |
| 20260502062504 | 50 | 257 | 1.0 | 4.0 | 0.00 | 0.00 | 0.00 | 89 | 1016.9 |
| 20260502062003 | 50 | 251 | 1.0 | 4.0 | 0.00 | 0.00 | 0.00 | 89 | 1016.9 |
| 20260502061504 | 50 | 262 | 1.0 | 3.0 | 0.00 | 0.00 | 0.00 | 89 | 1016.9 |
| 20260502061003 | 50 | 273 | 0.0 | 2.0 | 0.00 | 0.00 | 0.00 | 89 | 1016.9 |
| 20260502060504 | 50 | 231 | 0.0 | 3.0 | 0.00 | 0.00 | 0.00 | 89 | 1016.9 |
| 20260502060004 | 50 | 224 | 1.0 | 3.0 | 0.00 | 0.00 | 0.00 | 90 | 1016.8 |
| 20260502055504 | 50 | 221 | 1.0 | 3.0 | 0.00 | 0.00 | 0.00 | 90 | 1016.8 |
| 20260502055217 | 50 | 221 | 1.0 | 4.0 | 0.00 | 0.00 | 0.00 | 90 | 1016.8 |
| 20260502054716 | 51 | 227 | 1.0 | 4.0 | 0.00 | 0.00 | 0.00 | 90 | 1016.8 |
| 20260502054219 | 51 | 231 | 1.0 | 5.0 | 0.00 | 0.00 | 0.00 | 90 | 1016.8 |
| 20260502053504 | 51 | 220 | 1.0 | 2.0 | 0.00 | 0.00 | 0.00 | 91 | 1016.8 |
| 20260502053004 | 51 | 216 | 1.0 | 2.0 | 0.00 | 0.00 | 0.00 | 91 | 1016.7 |
| 20260502052503 | 51 | 218 | 1.0 | 3.0 | 0.00 | 0.00 | 0.00 | 91 | 1016.7 |
| 20260502052219 | 51 | 222 | 1.0 | 3.0 | 0.00 | 0.00 | 0.00 | 91 | 1016.7 |
| 20260502051504 | 51 | 234 | 1.0 | 5.0 | 0.00 | 0.00 | 0.00 | 92 | 1016.7 |
| 20260502051004 | 51 | 244 | 1.0 | 5.0 | 0.00 | 0.00 | 0.00 | 92 | 1016.6 |
| 20260502050504 | 51 | 285 | 1.0 | 3.0 | 0.00 | 0.00 | 0.00 | 92 | 1016.7 |
| 20260502050004 | 51 | 288 | 0.0 | 3.0 | 0.00 | 0.00 | 0.00 | 92 | 1016.7 |
| 20260502045504 | 51 | 301 | 0.0 | 3.0 | 0.00 | 0.00 | 0.00 | 92 | 1016.7 |
| 20260502045004 | 51 | 255 | 1.0 | 3.0 | 0.00 | 0.00 | 0.00 | 93 | 1016.8 |
| 20260502044504 | 51 | 238 | 1.0 | 3.0 | 0.00 | 0.00 | 0.00 | 93 | 1016.7 |
| 20260502044003 | 51 | 249 | 0.0 | 3.0 | 0.00 | 0.00 | 0.00 | 93 | 1016.7 |
| 20260502043503 | 51 | 213 | 0.0 | 2.0 | 0.00 | 0.00 | 0.00 | 92 | 1016.7 |
| 20260502043003 | 51 | 215 | 0.0 | 2.0 | 0.00 | 0.00 | 0.00 | 92 | 1016.7 |
| 20260502042718 | 51 | 220 | 0.0 | 2.0 | 0.00 | 0.00 | 0.00 | 92 | 1016.7 |
| 20260502042004 | 51 | 245 | 1.0 | 2.0 | 0.00 | 0.00 | 0.00 | 92 | 1016.7 |
| 20260502041504 | 51 | 268 | 0.0 | 2.0 | 0.00 | 0.00 | 0.00 | 92 | 1016.8 |
| 20260502041003 | 51 | 272 | 0.0 | 1.0 | 0.00 | 0.00 | 0.00 | 91 | 1016.7 |
| 20260502040718 | 51 | 272 | 0.0 | 1.0 | 0.00 | 0.00 | 0.00 | 91 | 1016.7 |
| 20260502040217 | 51 | 272 | 0.0 | 1.0 | 0.00 | 0.00 | 0.00 | 91 | 1016.7 |
| 20260502035504 | 52 | 270 | 0.0 | 2.0 | 0.00 | 0.00 | 0.00 | 92 | 1016.7 |
| 20260502035003 | 52 | 261 | 1.0 | 3.0 | 0.00 | 0.00 | 0.00 | 92 | 1016.8 |
| 20260502034718 | 52 | 260 | 0.0 | 3.0 | 0.00 | 0.00 | 0.00 | 92 | 1016.8 |
| 20260502034003 | 52 | 270 | 0.0 | 2.0 | 0.00 | 0.00 | 0.00 | 92 | 1016.8 |
| 20260502033503 | 52 | 259 | 0.0 | 3.0 | 0.00 | 0.00 | 0.00 | 92 | 1016.9 |
| 20260502033003 | 52 | 238 | 1.0 | 4.0 | 0.00 | 0.00 | 0.00 | 92 | 1016.9 |
| 20260502032717 | 52 | 226 | 1.0 | 7.0 | 0.00 | 0.00 | 0.00 | 92 | 1016.9 |
| 20260502032004 | 52 | 224 | 1.0 | 7.0 | 0.00 | 0.00 | 0.00 | 92 | 1016.9 |
| 20260502031503 | 52 | 228 | 1.0 | 6.0 | 0.00 | 0.00 | 0.00 | 92 | 1017.0 |
| 20260502031004 | 52 | 227 | 0.0 | 2.0 | 0.00 | 0.00 | 0.00 | 91 | 1016.9 |
| 20260502030503 | 52 | 227 | 0.0 | 2.0 | 0.00 | 0.00 | 0.00 | 91 | 1017.0 |
| 20260502030003 | 52 | 228 | 0.0 | 1.0 | 0.00 | 0.00 | 0.00 | 90 | 1017.0 |
| 20260502025503 | 52 | 230 | 0.0 | 1.0 | 0.00 | 0.00 | 0.00 | 90 | 1017.0 |
| 20260502025004 | 53 | 231 | 0.0 | 2.0 | 0.00 | 0.00 | 0.00 | 90 | 1017.0 |
| 20260502024503 | 53 | 231 | 1.0 | 2.0 | 0.00 | 0.00 | 0.00 | 90 | 1017.1 |
| 20260502024004 | 53 | 231 | 1.0 | 2.0 | 0.00 | 0.00 | 0.00 | 90 | 1017.0 |
| 20260502023503 | 53 | 231 | 0.0 | 1.0 | 0.00 | 0.00 | 0.00 | 89 | 1017.1 |
| 20260502023003 | 53 | 231 | 0.0 | 2.0 | 0.00 | 0.00 | 0.00 | 89 | 1017.1 |
| 20260502022504 | 54 | 233 | 1.0 | 4.0 | 0.00 | 0.00 | 0.00 | 89 | 1017.1 |
| 20260502022003 | 54 | 233 | 1.0 | 4.0 | 0.00 | 0.00 | 0.00 | 89 | 1017.2 |
| 20260502021503 | 54 | 233 | 1.0 | 4.0 | 0.00 | 0.00 | 0.00 | 88 | 1017.2 |
| 20260502021003 | 54 | 231 | 1.0 | 4.0 | 0.00 | 0.00 | 0.00 | 87 | 1017.2 |
| 20260502020503 | 54 | 232 | 1.0 | 2.0 | 0.00 | 0.00 | 0.00 | 87 | 1017.3 |
| 20260502020003 | 54 | 240 | 1.0 | 2.0 | 0.00 | 0.00 | 0.00 | 86 | 1017.3 |
| 20260502015503 | 54 | 244 | 1.0 | 3.0 | 0.00 | 0.00 | 0.00 | 86 | 1017.4 |
| 20260502015218 | 54 | 242 | 1.0 | 3.0 | 0.00 | 0.00 | 0.00 | 86 | 1017.4 |
| 20260502014503 | 55 | 234 | 1.0 | 5.0 | 0.00 | 0.00 | 0.00 | 86 | 1017.4 |
| 20260502014004 | 55 | 231 | 1.0 | 4.0 | 0.00 | 0.00 | 0.00 | 86 | 1017.5 |
| 20260502013504 | 55 | 231 | 1.0 | 4.0 | 0.00 | 0.00 | 0.00 | 86 | 1017.5 |
| 20260502013004 | 55 | 235 | 1.0 | 3.0 | 0.00 | 0.00 | 0.00 | 87 | 1017.6 |
| 20260502012719 | 55 | 236 | 1.0 | 3.0 | 0.00 | 0.00 | 0.00 | 87 | 1017.5 |
| 20260502012003 | 56 | 236 | 1.0 | 3.0 | 0.00 | 0.00 | 0.00 | 86 | 1017.6 |
| 20260502011504 | 56 | 241 | 1.0 | 4.0 | 0.00 | 0.00 | 0.00 | 86 | 1017.6 |
| 20260502011004 | 56 | 238 | 1.0 | 5.0 | 0.00 | 0.00 | 0.00 | 86 | 1017.6 |
| 20260502010504 | 56 | 233 | 2.0 | 6.0 | 0.00 | 0.00 | 0.00 | 86 | 1017.7 |
| 20260502010003 | 56 | 228 | 2.0 | 6.0 | 0.00 | 0.00 | 0.00 | 86 | 1017.8 |
| 20260502005503 | 56 | 244 | 1.0 | 4.0 | 0.00 | 0.00 | 0.00 | 85 | 1017.8 |
| 20260502005004 | 56 | 260 | 1.0 | 3.0 | 0.00 | 0.00 | 0.00 | 85 | 1017.7 |
| 20260502004718 | 56 | 245 | 1.0 | 6.0 | 0.00 | 0.00 | 0.00 | 85 | 1017.7 |
| 20260502004004 | 56 | 233 | 1.0 | 6.0 | 0.00 | 0.00 | 0.00 | 86 | 1017.7 |
| 20260502003503 | 56 | 242 | 0.0 | 2.0 | 0.00 | 0.00 | 0.00 | 86 | 1017.7 |
| 20260502003217 | 56 | 242 | 0.0 | 2.0 | 0.00 | 0.00 | 0.00 | 86 | 1017.7 |
| 20260502002504 | 56 | 242 | 0.0 | 2.0 | 0.00 | 0.00 | 0.00 | 86 | 1017.8 |
| 20260502002217 | 56 | 243 | 1.0 | 2.0 | 0.00 | 0.00 | 0.00 | 86 | 1017.8 |
| 20260502001503 | 55 | 259 | 1.0 | 4.0 | 0.00 | 0.00 | 0.00 | 86 | 1018.0 |
| 20260502001004 | 55 | 269 | 1.0 | 3.0 | 0.00 | 0.00 | 0.00 | 86 | 1017.9 |
| 20260502000503 | 55 | 250 | 0.0 | 3.0 | 0.00 | 0.00 | 0.00 | 86 | 1017.9 |
| 20260502000218 | 55 | 243 | 0.0 | 3.0 | 0.00 | 0.00 | 0.00 | 86 | 1017.9 |
| 20260501235504 | 55 | 224 | 0.0 | 3.0 | 0.00 | 0.00 | 0.00 | 86 | 1018.1 |
| 20260501235004 | 55 | 227 | 1.0 | 3.0 | 0.00 | 0.00 | 0.00 | 86 | 1018.1 |
| 20260501234504 | 55 | 271 | 1.0 | 3.0 | 0.00 | 0.00 | 0.00 | 86 | 1018.0 |
| 20260501234004 | 55 | 312 | 1.0 | 3.0 | 0.00 | 0.00 | 0.00 | 86 | 1017.9 |
| 20260501233503 | 55 | 350 | 0.0 | 2.0 | 0.00 | 0.00 | 0.00 | 86 | 1018.0 |
| 20260501233004 | 55 | 339 | 0.0 | 2.0 | 0.00 | 0.00 | 0.00 | 86 | 1018.0 |
| 20260501232503 | 55 | 263 | 0.0 | 2.0 | 0.00 | 0.00 | 0.00 | 86 | 1018.0 |
| 20260501232219 | 55 | 241 | 0.0 | 3.0 | 0.00 | 0.00 | 0.00 | 86 | 1018.0 |
| 20260501231503 | 55 | 226 | 1.0 | 3.0 | 0.00 | 0.00 | 0.00 | 86 | 1018.0 |
| 20260501231219 | 55 | 226 | 1.0 | 3.0 | 0.00 | 0.00 | 0.00 | 86 | 1018.0 |
| 20260501230503 | 55 | 227 | 1.0 | 3.0 | 0.00 | 0.00 | 0.00 | 86 | 1018.0 |
| 20260501230217 | 55 | 223 | 1.0 | 3.0 | 0.00 | 0.00 | 0.00 | 86 | 1018.1 |
| 20260501225504 | 55 | 219 | 1.0 | 3.0 | 0.00 | 0.00 | 0.00 | 86 | 1018.2 |
| 20260501225219 | 55 | 223 | 1.0 | 3.0 | 0.00 | 0.00 | 0.00 | 85 | 1018.1 |
| 20260501224505 | 55 | 228 | 1.0 | 4.0 | 0.00 | 0.00 | 0.00 | 85 | 1018.1 |
| 20260501224003 | 55 | 230 | 1.0 | 4.0 | 0.00 | 0.00 | 0.00 | 85 | 1018.1 |
| 20260501223503 | 55 | 231 | 0.0 | 2.0 | 0.00 | 0.00 | 0.00 | 85 | 1018.1 |
| 20260501223004 | 56 | 223 | 1.0 | 3.0 | 0.00 | 0.00 | 0.00 | 85 | 1018.1 |
| 20260501222504 | 56 | 220 | 1.0 | 3.0 | 0.00 | 0.00 | 0.00 | 85 | 1018.1 |
| 20260501222219 | 56 | 214 | 0.0 | 2.0 | 0.00 | 0.00 | 0.00 | 84 | 1018.1 |
| 20260501221503 | 56 | 212 | 0.0 | 2.0 | 0.00 | 0.00 | 0.00 | 84 | 1018.1 |
| 20260501221217 | 56 | 220 | 1.0 | 4.0 | 0.00 | 0.00 | 0.00 | 84 | 1018.1 |
| 20260501220503 | 56 | 215 | 1.0 | 4.0 | 0.00 | 0.00 | 0.00 | 84 | 1017.9 |
| 20260501220003 | 56 | 216 | 0.0 | 4.0 | 0.00 | 0.00 | 0.00 | 83 | 1017.8 |
| 20260501215503 | 57 | 242 | 1.0 | 4.0 | 0.00 | 0.00 | 0.00 | 83 | 1017.8 |
| 20260501215003 | 57 | 275 | 0.0 | 2.0 | 0.00 | 0.00 | 0.00 | 83 | 1017.7 |
| 20260501214503 | 57 | 215 | 0.0 | 2.0 | 0.00 | 0.00 | 0.00 | 82 | 1017.7 |
| 20260501214003 | 57 | 215 | 1.0 | 3.0 | 0.00 | 0.00 | 0.00 | 82 | 1017.7 |
| 20260501213504 | 58 | 226 | 1.0 | 3.0 | 0.00 | 0.00 | 0.00 | 81 | 1017.8 |
| 20260501213004 | 58 | 242 | 0.0 | 2.0 | 0.00 | 0.00 | 0.00 | 81 | 1017.8 |
| 20260501212719 | 58 | 246 | 1.0 | 2.0 | 0.00 | 0.00 | 0.00 | 81 | 1017.8 |
| 20260501212003 | 58 | 232 | 1.0 | 4.0 | 0.00 | 0.00 | 0.00 | 80 | 1017.8 |
| 20260501211503 | 58 | 228 | 1.0 | 4.0 | 0.00 | 0.00 | 0.00 | 79 | 1017.8 |
| 20260501211003 | 59 | 222 | 1.0 | 4.0 | 0.00 | 0.00 | 0.00 | 79 | 1017.8 |
| 20260501210719 | 59 | 213 | 1.0 | 3.0 | 0.00 | 0.00 | 0.00 | 78 | 1017.8 |
| 20260501210004 | 59 | 218 | 1.0 | 4.0 | 0.00 | 0.00 | 0.00 | 77 | 1017.8 |
| 20260501205504 | 59 | 226 | 1.0 | 5.0 | 0.00 | 0.00 | 0.00 | 76 | 1017.7 |
| 20260501205004 | 60 | 229 | 1.0 | 5.0 | 0.00 | 0.00 | 0.00 | 75 | 1017.7 |
| 20260501204505 | 60 | 227 | 1.0 | 4.0 | 0.00 | 0.00 | 0.00 | 74 | 1017.7 |
| 20260501204004 | 60 | 226 | 1.0 | 4.0 | 0.00 | 0.00 | 0.00 | 73 | 1017.7 |
| 20260501203719 | 60 | 225 | 1.0 | 4.0 | 0.00 | 0.00 | 0.00 | 72 | 1017.8 |
| 20260501203003 | 60 | 207 | 1.0 | 5.0 | 0.00 | 0.00 | 0.00 | 71 | 1017.7 |
| 20260501202503 | 60 | 222 | 1.0 | 3.0 | 0.00 | 0.00 | 0.00 | 70 | 1017.6 |
| 20260501202003 | 61 | 227 | 1.0 | 6.0 | 0.00 | 0.00 | 0.00 | 70 | 1017.6 |
| 20260501201503 | 61 | 224 | 1.0 | 6.0 | 0.00 | 0.00 | 0.00 | 69 | 1017.6 |
| 20260501201004 | 61 | 232 | 1.0 | 4.0 | 0.00 | 0.00 | 0.00 | 69 | 1017.5 |
| 20260501200504 | 61 | 234 | 1.0 | 4.0 | 0.00 | 0.00 | 0.00 | 68 | 1017.5 |
| 20260501200004 | 62 | 232 | 1.0 | 6.0 | 0.00 | 0.00 | 0.00 | 68 | 1017.5 |
| 20260501195503 | 62 | 228 | 2.0 | 6.0 | 0.00 | 0.00 | 0.00 | 67 | 1017.5 |
| 20260501195004 | 62 | 226 | 1.0 | 6.0 | 0.00 | 0.00 | 0.00 | 66 | 1017.5 |
| 20260501194504 | 62 | 237 | 2.0 | 6.0 | 0.00 | 0.00 | 0.00 | 66 | 1017.5 |
| 20260501194003 | 63 | 240 | 2.0 | 6.0 | 0.00 | 0.00 | 0.00 | 66 | 1017.5 |
| 20260501193718 | 63 | 245 | 2.0 | 6.0 | 0.00 | 0.00 | 0.00 | 65 | 1017.5 |
| 20260501193003 | 63 | 259 | 2.0 | 4.0 | 0.00 | 0.00 | 0.00 | 64 | 1017.4 |
| 20260501192503 | 63 | 269 | 2.0 | 4.0 | 0.00 | 0.00 | 0.00 | 64 | 1017.3 |
| 20260501192003 | 63 | 262 | 2.0 | 7.0 | 0.00 | 0.00 | 0.00 | 63 | 1017.2 |
| 20260501191503 | 64 | 262 | 3.0 | 7.0 | 0.00 | 0.00 | 0.00 | 62 | 1017.2 |
| 20260501191003 | 64 | 263 | 3.0 | 7.0 | 0.00 | 0.00 | 0.00 | 62 | 1017.2 |
| 20260501190504 | 64 | 259 | 3.0 | 7.0 | 0.00 | 0.00 | 0.00 | 62 | 1017.2 |
| 20260501190003 | 65 | 258 | 3.0 | 7.0 | 0.00 | 0.00 | 0.00 | 62 | 1017.1 |
| 20260501185504 | 66 | 256 | 3.0 | 8.0 | 0.00 | 0.00 | 0.00 | 62 | 1017.1 |
| 20260501185004 | 66 | 252 | 3.0 | 11.0 | 0.00 | 0.00 | 0.00 | 61 | 1017.1 |
| 20260501184504 | 67 | 251 | 3.0 | 11.0 | 0.00 | 0.00 | 0.00 | 59 | 1016.9 |
| 20260501184003 | 68 | 253 | 3.0 | 10.0 | 0.00 | 0.00 | 0.00 | 58 | 1016.9 |
| 20260501183503 | 68 | 255 | 3.0 | 10.0 | 0.00 | 0.00 | 0.00 | 56 | 1016.8 |
| 20260501183003 | 69 | 252 | 3.0 | 9.0 | 0.00 | 0.00 | 0.00 | 55 | 1016.7 |
| 20260501182503 | 70 | 249 | 2.0 | 9.0 | 0.00 | 0.00 | 0.00 | 56 | 1016.6 |
| 20260501182004 | 70 | 253 | 3.0 | 8.0 | 0.00 | 0.00 | 0.00 | 55 | 1016.6 |
| 20260501181718 | 70 | 260 | 3.0 | 8.0 | 0.00 | 0.00 | 0.00 | 55 | 1016.5 |
| 20260501181004 | 71 | 257 | 2.0 | 7.0 | 0.00 | 0.00 | 0.00 | 56 | 1016.4 |
| 20260501180718 | 72 | 254 | 3.0 | 7.0 | 0.00 | 0.00 | 0.00 | 55 | 1016.4 |
| 20260501180005 | 73 | 220 | 4.0 | 12.0 | 0.00 | 0.00 | 0.00 | 53 | 1016.3 |
| 20260501175503 | 73 | 205 | 3.0 | 11.0 | 0.00 | 0.00 | 0.00 | 50 | 1016.2 |
| 20260501175003 | 73 | 204 | 2.0 | 7.0 | 0.00 | 0.00 | 0.00 | 48 | 1016.2 |
| 20260501174718 | 73 | 201 | 2.0 | 7.0 | 0.00 | 0.00 | 0.00 | 48 | 1016.1 |
| 20260501174004 | 73 | 196 | 3.0 | 8.0 | 0.00 | 0.00 | 0.00 | 47 | 1016.2 |
| 20260501173503 | 74 | 183 | 3.0 | 8.0 | 0.00 | 0.00 | 0.00 | 46 | 1016.2 |
| 20260501173219 | 74 | 183 | 3.0 | 9.0 | 0.00 | 0.00 | 0.00 | 46 | 1016.2 |
| 20260501172503 | 74 | 179 | 4.0 | 9.0 | 0.00 | 0.00 | 0.00 | 46 | 1016.2 |
| 20260501172004 | 74 | 175 | 4.0 | 8.0 | 0.00 | 0.00 | 0.00 | 46 | 1016.3 |
| 20260501171504 | 74 | 174 | 4.0 | 8.0 | 0.00 | 0.00 | 0.00 | 46 | 1016.3 |
| 20260501171003 | 74 | 175 | 3.0 | 8.0 | 0.00 | 0.00 | 0.00 | 47 | 1016.4 |
| 20260501170503 | 74 | 175 | 4.0 | 8.0 | 0.00 | 0.00 | 0.00 | 46 | 1016.3 |
| 20260501170004 | 75 | 179 | 3.0 | 6.0 | 0.00 | 0.00 | 0.00 | 46 | 1016.5 |
| 20260501165505 | 75 | 181 | 3.0 | 6.0 | 0.00 | 0.00 | 0.00 | 46 | 1016.4 |
| 20260501165004 | 75 | 181 | 3.0 | 8.0 | 0.00 | 0.00 | 0.00 | 45 | 1016.4 |
| 20260501164720 | 75 | 179 | 3.0 | 8.0 | 0.00 | 0.00 | 0.00 | 45 | 1016.5 |
| 20260501164003 | 75 | 169 | 2.0 | 6.0 | 0.00 | 0.00 | 0.00 | 44 | 1016.5 |
| 20260501163504 | 75 | 170 | 2.0 | 6.0 | 0.00 | 0.00 | 0.00 | 44 | 1016.5 |
| 20260501163003 | 75 | 176 | 3.0 | 8.0 | 0.00 | 0.00 | 0.00 | 45 | 1016.6 |
| 20260501162717 | 75 | 181 | 3.0 | 8.0 | 0.00 | 0.00 | 0.00 | 45 | 1016.6 |
| 20260501162003 | 75 | 176 | 4.0 | 8.0 | 0.00 | 0.00 | 0.00 | 44 | 1016.6 |
| 20260501161503 | 75 | 173 | 4.0 | 9.0 | 0.00 | 0.00 | 0.00 | 45 | 1016.6 |
| 20260501161004 | 75 | 173 | 4.0 | 9.0 | 0.00 | 0.00 | 0.00 | 45 | 1016.7 |
| 20260501160503 | 75 | 173 | 4.0 | 8.0 | 0.00 | 0.00 | 0.00 | 44 | 1016.8 |
| 20260501160218 | 75 | 173 | 4.0 | 8.0 | 0.00 | 0.00 | 0.00 | 43 | 1016.7 |
| 20260501155503 | 76 | 177 | 3.0 | 7.0 | 0.00 | 0.00 | 0.00 | 44 | 1016.8 |
| 20260501155004 | 76 | 176 | 4.0 | 8.0 | 0.00 | 0.00 | 0.00 | 44 | 1016.9 |
| 20260501154504 | 76 | 173 | 3.0 | 8.0 | 0.00 | 0.00 | 0.00 | 43 | 1016.9 |
| 20260501154004 | 76 | 173 | 3.0 | 8.0 | 0.00 | 0.00 | 0.00 | 42 | 1017.0 |
| 20260501153504 | 76 | 175 | 3.0 | 8.0 | 0.00 | 0.00 | 0.00 | 43 | 1017.1 |
| 20260501153004 | 76 | 179 | 4.0 | 8.0 | 0.00 | 0.00 | 0.00 | 42 | 1017.0 |
| 20260501152504 | 76 | 181 | 4.0 | 7.0 | 0.00 | 0.00 | 0.00 | 42 | 1017.1 |
| 20260501152218 | 76 | 177 | 3.0 | 7.0 | 0.00 | 0.00 | 0.00 | 42 | 1017.1 |
| 20260501151503 | 77 | 175 | 3.0 | 9.0 | 0.00 | 0.00 | 0.00 | 41 | 1017.2 |
| 20260501151003 | 77 | 178 | 4.0 | 9.0 | 0.00 | 0.00 | 0.00 | 40 | 1017.2 |
| 20260501150503 | 78 | 182 | 4.0 | 11.0 | 0.00 | 0.00 | 0.00 | 40 | 1017.2 |
| 20260501145004 | 78 | 165 | 4.0 | 10.0 | 0.00 | 0.00 | 0.00 | 39 | 1017.4 |
| 20260501144504 | 78 | 178 | 3.0 | 9.0 | 0.00 | 0.00 | 0.00 | 40 | 1017.4 |
| 20260501144003 | 78 | 186 | 3.0 | 10.0 | 0.00 | 0.00 | 0.00 | 39 | 1017.5 |
| 20260501143504 | 78 | 177 | 4.0 | 11.0 | 0.00 | 0.00 | 0.00 | 40 | 1017.5 |
| 20260501143003 | 78 | 174 | 4.0 | 11.0 | 0.00 | 0.00 | 0.00 | 40 | 1017.6 |
| 20260501142503 | 78 | 168 | 2.0 | 6.0 | 0.00 | 0.00 | 0.00 | 40 | 1017.6 |
| 20260501142004 | 78 | 177 | 3.0 | 7.0 | 0.00 | 0.00 | 0.00 | 40 | 1017.7 |
| 20260501141503 | 78 | 183 | 4.0 | 11.0 | 0.00 | 0.00 | 0.00 | 39 | 1017.7 |
| 20260501141217 | 78 | 179 | 5.0 | 11.0 | 0.00 | 0.00 | 0.00 | 39 | 1017.8 |
| 20260501140716 | 78 | 176 | 5.0 | 11.0 | 0.00 | 0.00 | 0.00 | 40 | 1017.7 |
| 20260501140003 | 78 | 179 | 4.0 | 10.0 | 0.00 | 0.00 | 0.00 | 41 | 1017.7 |
| 20260501135503 | 78 | 177 | 3.0 | 8.0 | 0.00 | 0.00 | 0.00 | 40 | 1017.8 |
| 20260501134503 | 78 | 179 | 2.0 | 7.0 | 0.00 | 0.00 | 0.00 | 41 | 1017.9 |
| 20260501134003 | 77 | 179 | 3.0 | 7.0 | 0.00 | 0.00 | 0.00 | 41 | 1017.9 |
| 20260501133504 | 77 | 169 | 3.0 | 8.0 | 0.00 | 0.00 | 0.00 | 40 | 1018.0 |